• In Romania
  • List of Countries
  • For 7 days
  • Water Temperature
  • Satellite Maps
  • Weather Map
  • Weather Widgets
  • user-avatar
    Login

    Hourly Weather Moiseevka

    Today, 22 July, Sunday

    Time Temperature Precipitation Wind Pressure Humidity
    00:00 +20°C° 0 mm 1 mps 739 mmHg 96%
    01:00 +20°C° 0 mm 1 mps 739 mmHg 96%
    02:00 +19°C° 0 mm 1 mps 739 mmHg 97%
    03:00 +19°C° 0 mm 1 mps 739 mmHg 97%
    04:00 +20°C° 0 mm 1 mps 739 mmHg 97%
    05:00 +20°C° 0 mm 1 mps 740 mmHg 97%
    06:00 +21°C° 0.2 mm 1 mps 740 mmHg 95%
    07:00 +22°C° 0.2 mm 1 mps 740 mmHg 93%
    08:00 +23°C° 0.2 mm 1 mps 740 mmHg 91%
    09:00 +24°C° 1.2 mm 2 mps 740 mmHg 89%
    10:00 +25°C° 1.2 mm 2 mps 740 mmHg 86%
    11:00 +26°C° 1.2 mm 2 mps 740 mmHg 84%
    12:00 +25°C° 1.1 mm 3 mps 740 mmHg 83%
    13:00 +25°C° 1.1 mm 3 mps 740 mmHg 83%
    14:00 +25°C° 1.1 mm 3 mps 740 mmHg 82%
    15:00 +25°C° 0.7 mm 3 mps 740 mmHg 83%
    16:00 +24°C° 0.7 mm 3 mps 741 mmHg 84%
    17:00 +24°C° 0.7 mm 2 mps 741 mmHg 85%
    18:00 +23°C° 0.1 mm 2 mps 741 mmHg 88%
    19:00 +21°C° 0.1 mm 2 mps 741 mmHg 90%
    20:00 +20°C° 0.1 mm 2 mps 741 mmHg 92%
    21:00 +20°C° 0 mm 2 mps 741 mmHg 93%
    22:00 +20°C° 0 mm 2 mps 741 mmHg 94%
    23:00 +19°C° 0 mm 2 mps 741 mmHg 94%

    Tomorrow, 23 July, Monday

    Time Temperature Precipitation Wind Pressure Humidity
    00:00 +19°C° 0 mm 2 mps 741 mmHg 94%
    01:00 +19°C° 0 mm 2 mps 741 mmHg 95%
    02:00 +19°C° 0 mm 2 mps 741 mmHg 95%
    03:00 +19°C° 0 mm 2 mps 741 mmHg 94%
    04:00 +19°C° 0 mm 2 mps 741 mmHg 94%
    05:00 +19°C° 0 mm 2 mps 741 mmHg 94%
    06:00 +19°C° 0 mm 2 mps 741 mmHg 92%
    07:00 +19°C° 0 mm 2 mps 741 mmHg 91%
    08:00 +20°C° 0 mm 2 mps 741 mmHg 89%
    09:00 +21°C° 0.1 mm 3 mps 742 mmHg 83%
    10:00 +22°C° 0.1 mm 3 mps 742 mmHg 77%
    11:00 +24°C° 0.1 mm 3 mps 742 mmHg 70%
    12:00 +24°C° 0.1 mm 3 mps 742 mmHg 70%
    13:00 +25°C° 0.1 mm 3 mps 742 mmHg 70%
    14:00 +25°C° 0.1 mm 3 mps 742 mmHg 70%
    15:00 +23°C° 0.2 mm 4 mps 742 mmHg 71%
    16:00 +23°C° 0.2 mm 4 mps 742 mmHg 73%
    17:00 +23°C° 0.2 mm 4 mps 742 mmHg 75%
    18:00 +21°C° 0 mm 3 mps 742 mmHg 79%
    19:00 +20°C° 0 mm 3 mps 742 mmHg 84%
    20:00 +19°C° 0 mm 2 mps 742 mmHg 89%
    21:00 +18°C° 0 mm 2 mps 742 mmHg 91%
    22:00 +17°C° 0 mm 2 mps 742 mmHg 94%
    23:00 +17°C° 0 mm 2 mps 743 mmHg 97%

    Day after tomorrow, 24 July, Tuesday

    Time Temperature Precipitation Wind Pressure Humidity
    00:00 +16°C° 0 mm 2 mps 742 mmHg 97%
    01:00 +16°C° 0 mm 2 mps 742 mmHg 97%
    02:00 +16°C° 0 mm 2 mps 742 mmHg 98%
    03:00 +16°C° 0 mm 2 mps 742 mmHg 97%
    04:00 +16°C° 0 mm 2 mps 742 mmHg 97%
    05:00 +16°C° 0 mm 2 mps 742 mmHg 96%
    06:00 +17°C° 0 mm 3 mps 743 mmHg 92%
    07:00 +18°C° 0 mm 3 mps 743 mmHg 88%
    08:00 +19°C° 0 mm 3 mps 743 mmHg 84%
    09:00 +19°C° 0 mm 3 mps 743 mmHg 82%
    10:00 +20°C° 0 mm 3 mps 743 mmHg 80%
    11:00 +20°C° 0 mm 3 mps 743 mmHg 78%
    12:00 +21°C° 0 mm 3 mps 743 mmHg 76%
    13:00 +22°C° 0 mm 3 mps 743 mmHg 74%
    14:00 +24°C° 0 mm 3 mps 743 mmHg 72%
    15:00 +22°C° 0.1 mm 3 mps 743 mmHg 76%
    16:00 +22°C° 0.1 mm 3 mps 743 mmHg 80%
    17:00 +21°C° 0.1 mm 3 mps 743 mmHg 84%
    18:00 +21°C° 0.1 mm 3 mps 743 mmHg 87%
    19:00 +20°C° 0.1 mm 3 mps 743 mmHg 89%
    20:00 +20°C° 0.1 mm 3 mps 743 mmHg 92%
    21:00 +20°C° 0.1 mm 3 mps 743 mmHg 94%
    22:00 +19°C° 0.1 mm 3 mps 743 mmHg 96%
    23:00 +19°C° 0.1 mm 3 mps 743 mmHg 98%

    25 July, Wednesday

    Time Temperature Precipitation Wind Pressure Humidity
    00:00 +19°C° 0.2 mm 3 mps 743 mmHg 98%
    01:00 +19°C° 0.2 mm 3 mps 743 mmHg 98%
    02:00 +19°C° 0.2 mm 3 mps 743 mmHg 98%
    03:00 +19°C° 0.1 mm 3 mps 743 mmHg 98%
    04:00 +19°C° 0.1 mm 3 mps 744 mmHg 97%
    05:00 +19°C° 0.1 mm 2 mps 744 mmHg 97%
    06:00 +20°C° 0 mm 3 mps 744 mmHg 93%
    07:00 +21°C° 0 mm 3 mps 744 mmHg 90%
    08:00 +22°C° 0 mm 4 mps 744 mmHg 86%
    09:00 +22°C° 0.2 mm 4 mps 745 mmHg 81%
    10:00 +22°C° 0.2 mm 4 mps 745 mmHg 75%
    11:00 +23°C° 0.2 mm 4 mps 745 mmHg 70%
    12:00 +25°C° 0 mm 4 mps 745 mmHg 65%
    13:00 +26°C° 0 mm 4 mps 745 mmHg 60%
    14:00 +27°C° 0 mm 5 mps 745 mmHg 55%
    15:00 +26°C° 0 mm 4 mps 745 mmHg 57%
    16:00 +25°C° 0 mm 4 mps 745 mmHg 59%
    17:00 +23°C° 0 mm 4 mps 744 mmHg 61%
    18:00 +22°C° 0.1 mm 3 mps 745 mmHg 67%
    19:00 +21°C° 0.1 mm 3 mps 745 mmHg 74%
    20:00 +20°C° 0.1 mm 3 mps 745 mmHg 80%
    21:00 +20°C° 0.1 mm 3 mps 745 mmHg 82%
    22:00 +19°C° 0.1 mm 3 mps 745 mmHg 84%
    23:00 +19°C° 0.1 mm 3 mps 745 mmHg 85%

    26 July, Thursday

    Time Temperature Precipitation Wind Pressure Humidity
    00:00 +19°C° 0.1 mm 3 mps 745 mmHg 87%
    01:00 +19°C° 0.1 mm 3 mps 745 mmHg 89%
    02:00 +18°C° 0.1 mm 3 mps 745 mmHg 91%
    03:00 +18°C° 0.1 mm 3 mps 746 mmHg 92%
    04:00 +18°C° 0.1 mm 3 mps 746 mmHg 93%
    05:00 +18°C° 0.1 mm 3 mps 746 mmHg 93%
    06:00 +19°C° 0 mm 3 mps 746 mmHg 89%
    07:00 +21°C° 0 mm 3 mps 747 mmHg 85%
    08:00 +22°C° 0 mm 3 mps 747 mmHg 80%
    09:00 +25°C° 0 mm 3 mps 747 mmHg 70%
    10:00 +27°C° 0 mm 4 mps 747 mmHg 60%
    11:00 +29°C° 0 mm 4 mps 747 mmHg 50%
    12:00 +30°C° 0 mm 4 mps 747 mmHg 48%
    13:00 +30°C° 0 mm 4 mps 747 mmHg 45%
    14:00 +32°C° 0 mm 4 mps 747 mmHg 42%
    15:00 +30°C° 0 mm 4 mps 747 mmHg 46%
    16:00 +30°C° 0 mm 3 mps 747 mmHg 51%
    17:00 +30°C° 0 mm 3 mps 747 mmHg 55%
    18:00 +28°C° 0 mm 3 mps 747 mmHg 63%
    19:00 +26°C° 0 mm 3 mps 747 mmHg 71%
    20:00 +24°C° 0 mm 2 mps 747 mmHg 79%
    21:00 +23°C° 0 mm 2 mps 748 mmHg 84%
    22:00 +21°C° 0 mm 2 mps 748 mmHg 88%
    23:00 +20°C° 0 mm 2 mps 748 mmHg 93%

    27 July, Friday

    Time Temperature Precipitation Wind Pressure Humidity
    00:00 +20°C° 0 mm 2 mps 748 mmHg 94%
    01:00 +19°C° 0 mm 2 mps 748 mmHg 96%
    02:00 +19°C° 0 mm 2 mps 748 mmHg 97%
    03:00 +19°C° 0 mm 2 mps 748 mmHg 95%
    04:00 +19°C° 0 mm 2 mps 749 mmHg 94%
    05:00 +19°C° 0 mm 3 mps 749 mmHg 93%
    06:00 +21°C° 0 mm 3 mps 749 mmHg 86%
    07:00 +22°C° 0 mm 3 mps 749 mmHg 79%
    08:00 +25°C° 0 mm 3 mps 749 mmHg 72%
    09:00 +26°C° 0.1 mm 3 mps 749 mmHg 66%
    10:00 +28°C° 0.1 mm 3 mps 749 mmHg 61%
    11:00 +29°C° 0.1 mm 4 mps 749 mmHg 56%
    12:00 +29°C° 0.3 mm 4 mps 749 mmHg 57%
    13:00 +29°C° 0.3 mm 4 mps 749 mmHg 58%
    14:00 +29°C° 0.3 mm 4 mps 749 mmHg 59%
    15:00 +29°C° 0.2 mm 4 mps 749 mmHg 63%
    16:00 +28°C° 0.2 mm 3 mps 749 mmHg 68%
    17:00 +27°C° 0.2 mm 2 mps 749 mmHg 72%
    18:00 +26°C° 0.3 mm 2 mps 750 mmHg 77%
    19:00 +25°C° 0.3 mm 2 mps 750 mmHg 82%
    20:00 +24°C° 0.3 mm 2 mps 750 mmHg 86%
    21:00 +23°C° 0 mm 2 mps 750 mmHg 88%
    22:00 +21°C° 0 mm 2 mps 750 mmHg 90%
    23:00 +21°C° 0 mm 2 mps 750 mmHg 91%
    Show more